Wind_Speed
5 4 3 3 2 1 4 4 4 4 4 4 5 5 6 7 7 7 7 7 7 7 7 7 7 6 7 7 7 7 7 7 6 6 6 6 5 5 6 6 6 6 6 6 7 7 7 7 8
6 5 4 4 2 4 6 5 5 5 5 5 5 6 6 7 7 8 8 8 8 8 8 8 8 8 8 8 8 8 8 7 7 7 6 6 7 7 7 7 7 7 7 7 7 8 9 9 9
7 6 5 4 4 6 7 6 6 5 5 5 5 6 7 8 8 9 9 8 8 9 9 10 10 9 9 8 8 8 8 8 8 7 7 8 8 8 8 8 8 8 9 9 8 9 9 10 10
8 7 6 5 6 6 7 7 6 6 5 5 6 7 7 8 9 9 9 9 9 10 11 10 10 10 9 9 9 9 9 9 8 8 9 9 9 9 9 9 9 10 10 10 10 9 10 11 11
8 7 6 6 7 7 7 6 6 6 6 6 6 7 8 8 9 9 9 9 10 11 11 11 10 10 10 9 9 10 9 9 9 9 9 9 9 10 11 11 11 11 11 11 11 11 11 12 12
8 7 6 8 8 8 8 7 7 7 6 6 6 6 8 9 9 9 10 10 10 11 11 11 10 11 10 10 10 10 10 9 9 9 10 10 10 11 11 12 12 12 12 12 13 12 12 12 12
9 8 8 9 9 9 9 9 8 8 7 7 7 7 9 9 9 9 9 10 10 10 10 10 11 11 11 10 10 10 10 10 10 10 10 10 11 11 12 13 14 13 13 13 13 13 14 13 14
10 9 9 9 10 10 9 9 8 8 7 7 8 9 9 9 9 9 10 10 10 10 11 12 11 11 11 10 11 10 10 10 10 11 11 12 11 12 12 13 14 14 14 14 14 15 15 15 15
10 9 10 10 11 11 10 9 8 9 8 8 10 10 10 9 9 10 11 11 11 11 11 12 11 11 11 11 12 11 11 11 11 11 12 12 13 13 14 14 15 15 15 15 15 16 17 17 17
11 10 11 11 12 11 10 10 9 9 9 9 10 10 10 10 10 10 11 11 11 11 12 12 12 11 12 11 11 12 12 12 11 12 12 13 13 14 14 15 16 16 16 16 17 18 18 18 18
12 12 12 11 11 11 10 9 10 9 9 9 10 10 10 10 10 11 11 11 11 12 12 12 12 11 11 11 11 11 12 13 13 12 13 14 14 15 15 17 18 18 18 18 18 19 19 19 20
12 12 11 11 11 11 10 9 9 9 10 10 10 10 10 10 11 11 12 12 12 12 13 12 12 11 11 11 12 12 13 13 14 13 13 14 15 16 17 17 18 19 19 20 19 19 20 20 21
13 12 11 11 11 11 10 9 9 10 10 10 11 10 10 10 10 12 12 12 12 12 12 11 12 12 12 12 13 13 13 14 14 14 15 15 15 17 17 18 18 19 19 19 19 19 21 21 22
12 12 11 11 10 10 10 10 10 10 11 10 11 11 10 10 11 12 12 13 13 12 12 12 13 13 13 13 13 13 14 15 15 15 16 17 17 18 18 18 19 19 20 20 20 20 21 21 22
10 10 11 12 11 11 11 11 11 11 11 11 11 11 11 11 12 12 13 14 14 13 13 13 13 13 14 14 14 14 14 15 15 16 17 17 18 18 18 19 19 19 20 20 21 21 21 21 22
9 9 11 12 12 12 11 11 12 11 11 11 11 12 12 12 12 13 13 13 13 13 13 13 13 14 14 14 14 14 14 15 15 16 16 17 18 19 19 19 18 18 19 20 21 21 21 22 23
8 9 11 13 12 12 12 12 11 11 12 12 13 13 13 13 13 13 13 13 13 13 13 13 13 13 14 15 15 15 15 15 15 16 17 17 17 18 18 19 19 19 19 20 20 21 22 22 24
9 10 11 13 13 13 12 11 11 11 11 12 12 13 13 13 13 13 13 13 13 12 13 12 12 14 15 15 16 16 16 16 16 16 17 17 17 18 18 19 19 20 20 21 22 22 23 23 24
10 9 10 11 13 13 12 11 11 11 11 11 12 14 14 14 14 14 13 13 12 12 12 12 12 14 15 15 16 16 16 17 17 18 18 18 18 19 18 19 19 20 20 21 21 21 22 22 23
9 9 10 10 11 12 11 10 11 12 12 13 13 14 14 14 14 14 13 13 13 13 12 12 13 14 15 15 16 16 17 17 18 18 18 18 19 19 18 18 19 20 20 20 21 21 21 22 23
10 10 10 11 11 11 11 10 11 12 14 14 13 13 14 13 13 13 13 14 14 14 14 14 16 16 16 16 16 17 17 17 17 18 18 19 19 19 18 18 18 19 19 19 19 20 20 20 21
12 12 11 12 12 11 11 11 12 13 14 13 12 13 13 14 13 13 13 14 14 15 15 15 16 17 18 18 18 18 18 18 18 18 18 19 19 18 18 18 18 18 18 17 17 18 18 18 20
13 13 13 12 12 12 12 11 11 12 12 12 12 12 12 12 13 13 13 14 15 16 16 16 16 17 17 17 18 18 18 18 18 18 18 18 18 18 18 18 18 18 17 16 16 17 18 19 20
13 13 13 12 11 11 11 11 10 11 11 11 11 11 11 11 12 12 13 15 16 16 17 17 17 16 17 18 18 18 18 18 18 17 17 18 18 18 17 17 17 17 16 16 16 16 17 18 19
13 12 11 10 10 10 10 11 10 11 11 11 11 11 11 12 12 13 14 15 16 16 17 17 16 16 17 17 18 18 17 18 18 17 18 18 17 17 16 15 15 16 16 16 16 16 17 18 19
13 12 11 10 10 11 12 12 12 12 11 11 11 12 12 13 13 14 14 15 16 16 16 17 16 17 17 18 18 17 17 17 17 17 17 17 17 17 16 15 15 15 15 15 16 16 17 17 18
13 13 12 12 12 12 12 12 12 12 11 11 12 12 13 13 14 14 14 15 16 16 17 17 17 17 17 17 17 16 17 17 17 17 18 17 17 16 15 15 15 14 15 15 16 16 16 17 17
14 14 14 12 12 12 13 13 12 12 12 12 12 13 13 13 14 14 14 15 15 16 16 17 17 17 17 17 17 17 17 18 18 18 17 17 16 15 15 15 15 15 15 15 16 16 16 17 18
15 14 14 13 14 13 13 14 14 13 13 13 13 13 13 13 14 14 15 15 16 17 17 17 16 16 17 17 17 17 17 18 17 17 16 16 16 15 15 15 15 15 15 15 15 15 16 17 18
16 15 15 15 15 15 14 14 14 13 14 14 14 14 14 14 14 14 15 16 16 17 17 16 16 16 16 17 17 17 17 16 16 16 16 16 16 15 15 15 15 15 16 16 16 16 17 18 18
Wind_Direction
214 211 211 213 215 227 255 269 285 292 300 303 307 315 320 322 323 322 323 322 322 321 319 318 316 309 305 300 300 298 297 297 290 283 278 274 264 257 254 246 234 226 223 225 225 223 222 222 222
216 211 214 214 181 234 259 267 280 288 298 305 312 316 316 318 322 322 322 320 320 320 317 314 314 310 308 304 297 291 290 290 285 278 271 267 262 256 249 245 240 233 230 230 233 233 227 224 225
214 213 217 212 211 233 256 270 281 284 292 304 315 317 318 319 322 322 321 319 320 321 319 316 314 309 307 304 299 290 288 287 282 274 268 264 259 255 251 247 243 240 236 235 236 235 233 232 231
213 216 218 217 232 247 254 267 276 280 292 308 316 318 320 321 324 324 323 321 321 320 319 317 312 307 303 300 297 290 288 284 277 272 268 264 258 255 252 249 245 245 243 238 237 237 237 234 235
211 215 216 223 239 246 256 264 270 280 293 309 315 321 322 322 320 322 323 321 319 319 318 317 312 307 302 298 295 290 286 282 276 272 269 266 260 256 254 250 251 249 248 246 244 244 243 239 236
212 213 215 229 244 251 259 269 272 283 295 309 316 318 321 320 316 321 321 319 317 315 313 312 310 307 301 294 291 288 285 283 281 276 273 269 265 263 257 255 253 252 250 249 247 246 247 246 242
216 216 223 233 244 254 264 273 280 283 290 301 310 317 321 324 322 324 324 323 319 313 311 310 309 307 304 295 290 288 289 290 285 276 273 273 266 262 258 256 256 255 254 252 250 249 248 247 246
220 222 231 237 244 253 263 272 280 285 295 300 304 312 320 322 321 325 325 326 324 316 313 313 310 308 304 296 290 290 294 292 286 277 272 270 266 265 262 260 259 257 257 255 251 250 250 247 247
225 226 233 240 246 253 264 271 280 294 299 301 308 314 314 316 317 324 325 324 322 316 313 313 311 309 300 296 290 295 294 291 288 280 275 270 268 268 266 263 261 259 258 257 254 251 250 249 248
229 226 233 239 247 253 264 270 279 289 295 300 305 309 309 308 311 319 321 320 317 315 314 312 310 308 303 300 298 295 291 291 290 284 279 271 269 268 264 262 261 258 257 257 256 255 253 253 252
235 234 238 245 254 259 264 273 278 284 290 296 302 305 305 306 307 314 316 314 311 311 311 309 309 305 305 305 305 297 295 293 291 286 280 275 272 270 265 263 262 259 256 256 255 255 255 255 255
236 240 244 250 257 258 263 271 274 278 283 289 294 299 305 308 309 312 312 311 310 308 306 304 303 307 310 309 306 299 298 293 288 287 285 282 277 274 270 270 265 262 260 257 256 256 255 255 255
240 238 240 249 254 256 261 266 272 274 279 286 288 293 304 308 306 309 309 311 311 311 308 304 307 307 309 310 305 303 299 294 288 288 288 287 283 279 275 273 268 264 261 258 257 260 257 257 257
241 242 243 249 254 256 261 266 271 274 276 281 285 292 300 305 305 307 308 311 308 307 306 305 304 307 308 309 306 301 298 294 291 290 291 290 286 283 278 274 270 265 263 262 260 260 259 260 260
239 243 247 251 255 259 263 266 270 271 274 278 284 289 297 301 303 303 306 308 306 303 305 306 308 308 310 311 308 306 303 300 298 296 293 289 287 284 278 274 271 269 266 264 261 260 260 261 262
237 243 250 257 261 262 266 269 270 270 277 280 283 290 294 300 304 301 300 305 307 305 304 307 307 307 310 312 312 310 306 304 302 300 297 292 290 287 280 277 274 273 270 266 262 260 261 264 265
246 244 251 260 262 267 270 270 270 272 275 282 285 291 294 298 303 303 304 307 306 303 301 305 308 309 310 309 310 307 306 307 305 302 299 300 297 292 285 279 278 274 271 267 265 265 264 265 265
242 244 248 256 263 268 268 269 273 272 274 281 286 288 289 293 298 300 302 304 305 301 299 304 307 311 312 310 308 308 305 306 306 304 302 301 298 298 291 284 280 277 273 269 269 268 267 266 265
240 246 254 262 264 268 271 270 271 274 275 278 286 292 290 291 293 296 299 302 304 303 305 309 313 314 314 310 308 308 306 305 305 304 302 300 297 296 291 287 283 281 277 272 271 270 268 267 266
246 255 263 267 266 267 268 268 271 277 280 281 287 291 290 292 293 293 296 299 301 301 303 307 314 316 316 314 309 309 306 304 305 304 302 299 298 297 294 292 288 285 280 276 275 272 270 270 269
249 257 264 266 266 270 270 272 276 280 283 285 286 288 288 288 294 298 297 301 304 304 304 307 310 313 314 315 313 312 307 306 307 306 304 302 302 300 299 296 292 287 280 278 275 273 273 274 272
253 257 263 268 270 274 277 282 281 283 284 287 289 289 289 289 291 295 298 301 303 304 304 305 308 310 311 313 312 312 311 309 309 309 306 304 303 302 300 298 294 288 283 281 279 276 274 275 274
254 259 263 270 272 273 277 280 281 282 286 288 290 290 290 291 290 295 298 300 301 302 302 303 308 311 312 311 312 312 311 311 310 309 306 304 304 303 301 298 294 292 287 282 280 279 276 274 273
256 260 264 267 271 275 273 275 279 283 285 288 293 294 293 291 291 296 299 299 300 299 300 302 308 311 312 312 314 314 312 311 311 309 307 304 304 304 302 298 295 292 289 285 282 279 277 275 275
253 257 264 270 273 275 272 273 278 280 284 288 293 293 294 293 294 296 298 298 299 300 301 304 307 310 311 311 312 312 312 313 312 310 309 306 305 306 303 300 298 296 292 289 284 282 282 278 276
250 251 253 255 262 271 272 275 281 282 283 283 288 293 296 295 296 299 300 300 300 301 304 306 306 307 308 310 312 312 312 312 311 310 311 310 308 308 305 303 303 300 297 292 289 284 282 282 278
249 250 250 256 260 266 272 275 282 284 282 281 285 290 294 294 296 300 302 304 302 302 304 307 307 308 309 310 311 313 312 312 311 309 309 310 308 307 307 306 306 300 300 300 295 290 286 286 285
250 253 253 254 261 267 275 284 283 283 283 284 286 289 293 296 298 299 302 304 304 305 305 307 308 309 308 310 311 311 313 315 312 310 310 311 309 308 306 303 305 301 300 300 298 294 292 291 290
250 251 252 255 258 264 273 281 283 285 288 290 290 292 294 295 298 299 301 302 301 302 303 304 306 306 307 309 312 314 316 319 315 313 312 312 311 311 309 306 304 304 303 302 298 295 293 292 290
251 254 257 258 260 263 269 277 282 286 289 290 290 292 294 296 298 299 301 302 302 301 303 300 301 305 309 312 313 315 318 320 321 317 316 314 311 310 309 308 307 307 306 303 299 295 294 293 292
Height
5887 5888 5889 5891 5892 5894 5893 5892 5891 5890 5889 5889 5888 5887 5886 5886 5886 5887 5883 5881 5880 5879 5878 5877 5876 5875 5874 5873 5873 5872 5872 5871 5871 5870 5870 5870 5870 5870 5870 5870 5870 5871 5871 5871 5872 5872 5873 5873 5874
5886 5887 5889 5890 5892 5894 5892 5890 5890 5889 5888 5887 5886 5885 5884 5884 5883 5882 5880 5879 5878 5877 5876 5875 5874 5873 5872 5871 5871 5870 5870 5869 5869 5868 5868 5868 5868 5868 5868 5868 5869 5869 5869 5869 5870 5870 5871 5872 5873
5885 5886 5888 5889 5891 5892 5890 5889 5888 5887 5886 5886 5885 5884 5883 5882 5881 5880 5879 5878 5877 5875 5874 5873 5872 5871 5870 5869 5869 5868 5868 5867 5866 5866 5866 5866 5866 5866 5866 5866 5867 5867 5867 5868 5868 5868 5869 5870 5871
5883 5885 5887 5889 5889 5889 5888 5888 5886 5885 5885 5884 5883 5883 5881 5881 5879 5878 5877 5876 5875 5873 5872 5871 5870 5869 5868 5867 5866 5866 5865 5864 5864 5864 5864 5863 5863 5863 5864 5864 5865 5865 5865 5865 5865 5866 5867 5867 5868
5881 5884 5886 5888 5887 5887 5886 5885 5885 5884 5883 5883 5882 5881 5880 5879 5877 5876 5875 5874 5873 5871 5870 5869 5867 5866 5865 5864 5864 5863 5862 5862 5861 5861 5861 5861 5861 5861 5861 5861 5862 5862 5863 5863 5863 5864 5864 5865 5866
5880 5883 5886 5886 5885 5885 5885 5884 5883 5883 5882 5881 5880 5879 5878 5877 5876 5875 5873 5872 5871 5869 5868 5866 5865 5864 5863 5862 5861 5860 5860 5859 5859 5858 5858 5858 5858 5859 5859 5859 5859 5860 5860 5861 5861 5862 5862 5863 5864
5879 5881 5883 5884 5883 5883 5883 5882 5882 5881 5881 5880 5879 5878 5877 5875 5874 5873 5871 5870 5868 5867 5865 5864 5863 5861 5860 5859 5859 5858 5857 5857 5856 5856 5855 5855 5855 5855 5856 5856 5856 5857 5857 5858 5858 5859 5859 5860 5861
5877 5880 5881 5882 5882 5882 5881 5881 5880 5880 5879 5879 5877 5876 5875 5874 5872 5871 5869 5868 5866 5865 5863 5862 5860 5859 5858 5857 5856 5855 5854 5854 5853 5852 5852 5852 5852 5852 5852 5853 5853 5853 5854 5855 5855 5856 5856 5857 5858
5875 5879 5879 5879 5880 5880 5879 5879 5879 5878 5877 5876 5875 5874 5873 5872 5870 5869 5868 5866 5864 5863 5861 5859 5858 5857 5855 5854 5853 5852 5851 5851 5850 5849 5849 5849 5849 5849 5849 5849 5850 5850 5851 5851 5852 5853 5853 5854 5854
5873 5876 5876 5876 5877 5877 5877 5877 5877 5876 5876 5874 5873 5872 5871 5869 5869 5867 5866 5864 5862 5861 5859 5857 5856 5854 5853 5852 5851 5850 5849 5848 5847 5846 5846 5846 5846 5846 5846 5846 5846 5846 5847 5847 5848 5849 5849 5850 5851
5871 5872 5873 5874 5874 5875 5875 5875 5875 5874 5874 5873 5871 5870 5869 5868 5867 5866 5864 5862 5860 5859 5857 5855 5854 5852 5851 5850 5849 5847 5846 5845 5844 5844 5843 5843 5842 5842 5842 5842 5842 5842 5842 5843 5843 5844 5845 5845 5846
5869 5870 5870 5871 5872 5872 5873 5873 5873 5872 5872 5870 5869 5869 5868 5867 5865 5863 5862 5860 5859 5857 5855 5853 5852 5850 5849 5847 5846 5845 5843 5842 5841 5841 5840 5839 5839 5839 5838 5837 5837 5837 5837 5838 5839 5839 5840 5840 5841
5866 5867 5868 5869 5869 5870 5870 5871 5870 5870 5869 5868 5867 5867 5866 5864 5863 5861 5860 5858 5857 5855 5853 5851 5850 5848 5847 5845 5843 5842 5840 5839 5838 5838 5837 5836 5836 5835 5834 5834 5833 5833 5833 5833 5834 5835 5835 5835 5836
5864 5865 5866 5866 5867 5867 5868 5868 5868 5867 5867 5866 5865 5864 5864 5862 5861 5859 5858 5856 5855 5853 5851 5849 5847 5846 5844 5843 5841 5839 5838 5837 5836 5835 5833 5832 5831 5831 5830 5830 5829 5829 5829 5829 5829 5829 5830 5830 5830
5862 5864 5864 5864 5865 5865 5866 5866 5865 5865 5864 5864 5863 5862 5861 5860 5859 5858 5856 5854 5852 5851 5849 5847 5845 5844 5842 5840 5838 5836 5835 5834 5832 5831 5829 5828 5827 5826 5825 5825 5825 5824 5824 5824 5824 5824 5825 5825 5825
5861 5862 5863 5863 5862 5863 5865 5864 5863 5862 5862 5861 5861 5860 5859 5858 5857 5855 5854 5852 5850 5848 5847 5845 5843 5841 5839 5837 5835 5834 5832 5830 5829 5827 5825 5824 5823 5821 5820 5820 5820 5819 5819 5819 5819 5819 5819 5819 5819
5860 5861 5862 5861 5860 5860 5861 5861 5861 5860 5860 5859 5859 5858 5857 5856 5854 5853 5851 5849 5848 5846 5844 5843 5841 5839 5837 5835 5832 5831 5829 5827 5825 5823 5822 5820 5818 5817 5816 5815 5815 5814 5814 5814 5814 5814 5814 5814 5813
5859 5859 5859 5859 5858 5858 5858 5859 5859 5858 5857 5857 5856 5855 5854 5853 5852 5850 5848 5847 5845 5843 5842 5840 5838 5836 5834 5832 5830 5828 5826 5824 5822 5820 5818 5816 5814 5813 5811 5811 5810 5809 5808 5808 5808 5808 5808 5807 5807
5856 5857 5857 5857 5856 5856 5856 5856 5856 5855 5855 5854 5853 5852 5850 5850 5849 5847 5846 5844 5843 5841 5839 5837 5835 5833 5831 5829 5827 5825 5823 5821 5819 5816 5814 5812 5810 5808 5807 5806 5805 5804 5803 5802 5802 5801 5801 5801 5801
5854 5854 5854 5854 5853 5854 5854 5854 5854 5853 5852 5851 5850 5849 5848 5847 5846 5845 5843 5842 5840 5838 5836 5834 5832 5830 5828 5826 5824 5821 5819 5817 5815 5813 5810 5808 5806 5804 5802 5801 5799 5798 5797 5797 5796 5796 5795 5795 5794
5851 5852 5852 5852 5851 5852 5852 5853 5852 5851 5850 5849 5847 5846 5845 5844 5843 5841 5840 5839 5837 5835 5833 5831 5829 5827 5825 5823 5820 5818 5815 5813 5810 5808 5806 5804 5801 5799 5797 5795 5794 5792 5792 5791 5790 5790 5789 5789 5788
5849 5849 5849 5849 5850 5850 5851 5851 5850 5848 5847 5846 5844 5843 5841 5840 5840 5838 5837 5836 5834 5832 5831 5829 5826 5824 5821 5819 5816 5814 5811 5809 5807 5804 5802 5799 5797 5794 5792 5790 5789 5787 5787 5786 5785 5784 5784 5783 5782
5846 5846 5846 5847 5847 5848 5848 5848 5848 5845 5844 5843 5841 5840 5838 5837 5836 5835 5834 5832 5831 5829 5827 5825 5823 5820 5817 5815 5813 5810 5807 5805 5803 5800 5797 5795 5792 5790 5788 5786 5784 5783 5782 5781 5780 5779 5778 5778 5777
5843 5844 5844 5844 5845 5845 5845 5845 5844 5843 5841 5840 5839 5837 5836 5835 5833 5832 5831 5829 5828 5826 5824 5822 5820 5817 5814 5811 5809 5806 5803 5801 5798 5796 5793 5791 5789 5786 5783 5781 5780 5778 5777 5776 5775 5774 5773 5772 5771
5840 5841 5842 5843 5843 5843 5842 5841 5841 5839 5838 5837 5836 5835 5833 5832 5830 5829 5828 5826 5824 5822 5820 5818 5816 5813 5811 5808 5805 5802 5799 5797 5795 5792 5790 5787 5785 5782 5779 5777 5775 5774 5772 5771 5770 5769 5768 5767 5766
5837 5838 5840 5841 5841 5841 5838 5838 5838 5836 5835 5834 5833 5832 5830 5829 5827 5826 5824 5822 5821 5819 5817 5815 5813 5810 5807 5804 5801 5798 5796 5793 5791 5788 5785 5783 5781 5778 5776 5773 5771 5770 5768 5766 5765 5764 5763 5762 5761
5833 5834 5836 5837 5836 5836 5836 5835 5834 5832 5831 5830 5830 5828 5827 5826 5824 5823 5821 5819 5817 5815 5813 5811 5809 5806 5803 5800 5797 5795 5792 5789 5787 5784 5781 5779 5776 5774 5772 5770 5768 5766 5764 5762 5761 5759 5758 5757 5756
5830 5831 5831 5832 5832 5833 5833 5831 5831 5829 5828 5827 5826 5825 5824 5822 5821 5819 5817 5816 5814 5812 5810 5807 5805 5802 5800 5797 5794 5791 5789 5786 5782 5779 5777 5775 5772 5770 5768 5766 5764 5762 5760 5758 5757 5755 5753 5752 5750
5826 5827 5827 5828 5829 5829 5830 5831 5827 5825 5824 5824 5823 5821 5820 5819 5817 5816 5814 5812 5810 5808 5806 5804 5801 5799 5796 5793 5791 5788 5785 5782 5778 5775 5773 5771 5769 5766 5764 5762 5760 5758 5756 5755 5753 5751 5749 5747 5746
5822 5822 5823 5824 5824 5824 5825 5828 5823 5822 5821 5820 5819 5818 5816 5815 5814 5812 5810 5808 5806 5804 5802 5800 5797 5795 5792 5790 5787 5784 5781 5778 5775 5772 5770 5767 5765 5763 5761 5759 5756 5754 5753 5751 5748 5746 5744 5742 5741